This demonstration page uses our WeatherBlox Daily Observations layout. Learn more.

Left ArrowRight Arrow

41.55636, -103.73856

Hourly Observations for February 6, 2018

Temp ( °F °C ) Dew Point ( °F °C ) Humidity (%) Winds ( mph kmh ) Pressure ( in mb ) Visibility ( mi km ) Precip ( " mm )
12:02 am 00:02 Cloudy 18 -8 10 -12 73 73 ESE 16 26 30.30 1026 10 16 N/A
12:53 am 00:53 Cloudy 16 -8.9 10 -12.2 77 77 ESE 20 31 30.17 1022 10 16 N/A
1:28 am 01:28 Mostly Cloudy 16 -9 9 -13 73 73 ESE 18 30 30.30 1026 10 16 N/A
1:53 am 01:53 Cloudy 15 -9.4 9 -12.8 77 77 ESE 21 33 30.16 1021 10 16 N/A
2:53 am 02:53 Cloudy 15 -9.4 10 -12.2 80 80 ESE 20 31 30.13 1020 10 16 N/A
3:53 am 03:53 Cloudy 16 -8.9 11 -11.7 80 80 ESE 17 28 30.12 1020 10 16 N/A
4:53 am 04:53 Cloudy 17 -8.3 12 -11.1 80 80 ESE 16 26 30.11 1020 10 16 N/A
5:33 am 05:33 Mostly Cloudy 17 -8.3 13 -10.6 84 84 E 15 24 30.21 1023 10 16 N/A
5:53 am 05:53 Cloudy 17 -8.3 13 -10.6 84 84 E 14 22 30.11 1020 10 16 N/A
6:53 am 06:53 Cloudy 16 -8.9 14 -10 92 92 VRB 5 7 30.13 1020 10 16 N/A
7:09 am 07:09 Cloudy 15 -9.4 12 -11.1 88 88 N N/A 30.24 1024 10 16 N/A
7:53 am 07:53 Mostly Cloudy 15 -9.4 12 -11.1 88 88 W 6 9 30.15 1021 8 13 N/A
8:02 am 08:02 Partly Cloudy 16 -9 12 -11 86 86 W 6 9 30.27 1025 9 14 N/A
8:39 am 08:39 Partly Cloudy 17 -8.3 14 -10 88 88 NW 9 15 30.24 1024 8 13 N/A
8:53 am 08:53 Mostly Cloudy 19 -7.2 16 -8.9 88 88 NW 9 15 30.14 1021 9 14 N/A
9:05 am 09:05 Cloudy 19 -7.2 16 -8.9 88 88 NW 7 11 30.24 1024 8 13 N/A
9:50 am 09:50 Partly Cloudy 19 -7 16 -9 86 86 NW 8 13 30.24 1024 8 13 N/A
9:53 am 09:53 Mostly Sunny 20 -6.7 15 -9.4 81 81 NW 9 15 30.14 1021 9 14 N/A
10:53 am 10:53 Sunny 22 -5.6 15 -9.4 75 75 WNW 6 9 30.15 1021 10 16 N/A
11:53 am 11:53 Sunny 23 -5 17 -8.3 78 78 W 7 11 30.12 1020 9 14 N/A
12:53 pm 12:53 Sunny 26 -3.3 18 -7.8 71 71 WNW 7 11 30.12 1020 10 16 N/A
1:53 pm 13:53 Sunny 28 -2.2 20 -6.7 72 72 WNW 8 13 30.12 1020 10 16 N/A
2:53 pm 14:53 Sunny 30 -1.1 22 -5.6 72 72 WSW 6 9 30.12 1020 10 16 N/A
3:53 pm 15:53 Sunny 29 -1.7 21 -6.1 72 72 W 5 7 30.14 1021 10 16 N/A
4:53 pm 16:53 Sunny 27 -2.8 21 -6.1 78 78 W 5 7 30.19 1022 10 16 N/A
5:53 pm 17:53 Mostly Cloudy 27 -2.8 23 -5 85 85 NNW 6 9 30.23 1024 10 16 N/A
6:53 pm 18:53 Cloudy 30 -1.1 24 -4.4 79 79 SW 3 6 30.26 1025 10 16 N/A
7:53 pm 19:53 Cloudy 29 -1.7 25 -3.9 85 85 ESE 5 7 30.29 1026 10 16 N/A
8:53 pm 20:53 Cloudy 28 -2.2 23 -5 81 81 NE 9 15 30.32 1027 9 14 N/A
9:53 pm 21:53 Cloudy with Light Snow 27 -2.8 23 -5 85 85 NE 7 11 30.34 1028 5 8 N/A
10:53 pm 22:53 Cloudy with Light Snow 27 -2.8 24 -4.4 89 89 NNE 5 7 30.36 1028 2 3 N/A
11:01 pm 23:01 Cloudy with Light Snow 27 -2.8 24 -4.4 89 89 NE 3 6 30.39 1029 1 2 0.01 0.25
11:17 pm 23:17 Cloudy with Light Snow 26 -3.3 24 -4.4 92 92 E 3 6 30.42 1030 3 5 0.01 0.25
11:27 pm 23:27 Cloudy with Light Snow 26 -3.3 24 -4.4 92 92 ESE 3 6 30.42 1030 4 6 0.01 0.25
11:39 pm 23:39 Cloudy with Light Snow 26 -3.3 24 -4.4 92 92 N N/A 30.45 1031 3 4 0.01 0.25
11:53 pm 23:53 Cloudy with Light Snow 26 -3.3 24 -4.4 92 92 N N/A 30.37 1029 3 5 0.01 0.25

Powered by AerisWeather